TimeCDT,TemperatureF,Dew PointF,Humidity,Sea Level PressureIn,VisibilityMPH,Wind Direction,Wind SpeedMPH,Gust SpeedMPH,PrecipitationIn,Events,Conditions,WindDirDegrees,DateUTC
12:15 AM,66.6,54.0,64,30.02,10.0,SE,6.9,-,N/A,,Clear,140,2012-10-04 05:15:00
12:35 AM,66.4,53.8,64,30.02,10.0,SSE,6.9,-,N/A,,Clear,150,2012-10-04 05:35:00
12:55 AM,66.2,53.8,64,30.03,10.0,SE,6.9,-,N/A,,Clear,140,2012-10-04 05:55:00
1:15 AM,65.5,53.8,66,30.03,10.0,SE,5.8,-,N/A,,Clear,140,2012-10-04 06:15:00
1:35 AM,65.3,54.0,67,30.03,10.0,SE,4.6,-,N/A,,Clear,140,2012-10-04 06:35:00
1:55 AM,65.3,54.0,67,30.04,10.0,SE,6.9,-,N/A,,Clear,140,2012-10-04 06:55:00
2:15 AM,65.3,54.5,68,30.04,10.0,SSE,5.8,-,N/A,,Clear,150,2012-10-04 07:15:00
2:35 AM,65.3,54.9,69,30.04,10.0,SSE,6.9,-,N/A,,Clear,160,2012-10-04 07:35:00
2:55 AM,64.9,55.6,72,30.04,10.0,SSE,5.8,-,N/A,,Clear,160,2012-10-04 07:55:00
3:15 AM,64.6,55.9,74,30.04,10.0,SSE,4.6,-,N/A,,Clear,160,2012-10-04 08:15:00
3:35 AM,64.4,56.5,75,30.04,10.0,SSE,5.8,-,N/A,,Clear,160,2012-10-04 08:35:00
3:55 AM,64.4,57.2,77,30.04,10.0,South,5.8,-,N/A,,Clear,170,2012-10-04 08:55:00
4:15 AM,64.4,57.6,78,30.05,10.0,South,4.6,-,N/A,,Clear,170,2012-10-04 09:15:00
4:35 AM,64.4,58.1,80,30.05,10.0,South,4.6,-,N/A,,Clear,170,2012-10-04 09:35:00
4:55 AM,64.4,58.6,82,30.06,10.0,South,5.8,-,N/A,,Clear,170,2012-10-04 09:55:00
5:15 AM,63.7,58.8,84,30.06,10.0,South,5.8,-,N/A,,Clear,170,2012-10-04 10:15:00
5:35 AM,63.7,59.2,85,30.06,10.0,South,6.9,-,N/A,,Clear,180,2012-10-04 10:35:00
5:55 AM,64.0,59.5,85,30.07,10.0,South,6.9,-,N/A,,Clear,180,2012-10-04 10:55:00
6:15 AM,64.4,59.9,85,30.07,10.0,South,6.9,-,N/A,,Clear,170,2012-10-04 11:15:00
6:35 AM,64.4,60.1,86,30.07,10.0,South,5.8,-,N/A,,Clear,170,2012-10-04 11:35:00
6:55 AM,64.4,60.3,86,30.07,10.0,South,8.1,-,N/A,,Clear,170,2012-10-04 11:55:00
7:15 AM,64.4,60.4,87,30.08,10.0,South,8.1,-,N/A,,Clear,170,2012-10-04 12:15:00
7:35 AM,64.2,60.8,89,30.09,10.0,SSE,6.9,-,N/A,,Clear,160,2012-10-04 12:35:00
7:55 AM,64.4,61.0,89,30.09,10.0,SSE,5.8,-,N/A,,Clear,150,2012-10-04 12:55:00
8:15 AM,65.7,61.7,87,30.10,10.0,SSE,6.9,-,N/A,,Scattered Clouds,160,2012-10-04 13:15:00
8:35 AM,67.3,62.1,83,30.10,10.0,SSE,9.2,-,N/A,,Scattered Clouds,160,2012-10-04 13:35:00
9:15 AM,71.1,62.4,74,30.11,10.0,SSE,11.5,17.3,N/A,,Clear,160,2012-10-04 14:15:00
9:35 AM,72.7,62.6,71,30.11,10.0,SSE,11.5,18.4,N/A,,Clear,160,2012-10-04 14:35:00
9:55 AM,74.7,62.8,66,30.11,10.0,SSE,9.2,-,N/A,,Clear,160,2012-10-04 14:55:00
10:15 AM,75.9,63.0,64,30.11,10.0,South,9.2,17.3,N/A,,Clear,170,2012-10-04 15:15:00
10:35 AM,77.7,64.0,63,30.11,10.0,SSE,13.8,18.4,N/A,,Clear,160,2012-10-04 15:35:00
10:55 AM,78.4,64.6,62,30.11,10.0,South,12.7,18.4,N/A,,Scattered Clouds,170,2012-10-04 15:55:00
11:15 AM,78.8,65.5,64,30.12,10.0,SSE,10.4,17.3,N/A,,Mostly Cloudy,160,2012-10-04 16:15:00
11:35 AM,79.2,65.8,64,30.12,10.0,SSE,11.5,-,N/A,,Overcast,160,2012-10-04 16:35:00
11:55 AM,80.2,66.6,63,30.12,10.0,South,10.4,16.1,N/A,,Overcast,180,2012-10-04 16:55:00
12:15 PM,80.8,66.6,62,30.12,10.0,South,10.4,16.1,N/A,,Overcast,180,2012-10-04 17:15:00
12:35 PM,81.0,66.7,62,30.12,10.0,South,10.4,-,N/A,,Overcast,170,2012-10-04 17:35:00
12:55 PM,82.6,66.7,59,30.12,10.0,SSW,9.2,20.7,N/A,,Mostly Cloudy,210,2012-10-04 17:55:00
1:15 PM,82.8,67.1,59,30.12,10.0,SSE,6.9,-,N/A,,Mostly Cloudy,160,2012-10-04 18:15:00
1:35 PM,83.3,66.7,57,30.11,10.0,South,12.7,-,N/A,,Mostly Cloudy,190,2012-10-04 18:35:00
2:15 PM,85.1,66.7,54,30.09,10.0,South,12.7,18.4,N/A,,Scattered Clouds,170,2012-10-04 19:15:00
2:35 PM,85.1,66.6,54,30.08,10.0,SSE,9.2,16.1,N/A,,Mostly Cloudy,160,2012-10-04 19:35:00
2:55 PM,85.6,67.1,54,30.07,10.0,South,13.8,17.3,N/A,,Overcast,190,2012-10-04 19:55:00
3:15 PM,86.0,66.2,51,30.07,10.0,SSW,16.1,19.6,N/A,,Mostly Cloudy,200,2012-10-04 20:15:00
3:35 PM,87.1,66.0,49,30.06,10.0,South,13.8,19.6,N/A,,Mostly Cloudy,190,2012-10-04 20:35:00
3:55 PM,86.4,65.8,50,30.06,10.0,South,9.2,16.1,N/A,,Overcast,170,2012-10-04 20:55:00
4:15 PM,86.2,65.5,50,30.06,10.0,SSW,12.7,19.6,N/A,,Scattered Clouds,200,2012-10-04 21:15:00
4:35 PM,84.7,65.3,52,30.05,10.0,South,12.7,18.4,N/A,,Clear,190,2012-10-04 21:35:00
5:15 PM,84.2,65.3,53,30.05,10.0,South,12.7,19.6,N/A,,Mostly Cloudy,180,2012-10-04 22:15:00
5:35 PM,83.5,65.3,54,30.05,10.0,South,8.1,-,N/A,,Overcast,170,2012-10-04 22:35:00
5:55 PM,83.7,65.5,54,30.05,10.0,South,9.2,-,N/A,,Mostly Cloudy,170,2012-10-04 22:55:00
6:15 PM,82.6,65.3,56,30.05,10.0,South,10.4,16.1,N/A,,Overcast,170,2012-10-04 23:15:00
6:35 PM,82.4,65.1,56,30.06,10.0,South,6.9,-,N/A,,Overcast,170,2012-10-04 23:35:00
6:55 PM,81.5,65.1,57,30.06,10.0,South,8.1,-,N/A,,Overcast,170,2012-10-04 23:55:00
7:15 PM,80.6,65.3,59,30.06,10.0,SSE,3.5,-,N/A,,Overcast,160,2012-10-05 00:15:00
7:55 PM,79.7,65.3,61,30.06,10.0,SSE,5.8,-,N/A,,Overcast,150,2012-10-05 00:55:00
8:15 PM,78.8,65.5,64,30.06,10.0,SE,4.6,-,N/A,,Overcast,140,2012-10-05 01:15:00
8:35 PM,77.9,65.5,65,30.07,10.0,SE,4.6,-,N/A,,Overcast,130,2012-10-05 01:35:00
9:15 PM,77.9,63.7,61,30.07,10.0,SE,6.9,-,N/A,,Overcast,140,2012-10-05 02:15:00
9:35 PM,77.5,63.5,62,30.07,10.0,SE,8.1,-,N/A,,Overcast,140,2012-10-05 02:35:00
9:55 PM,77.0,63.1,62,30.07,10.0,SE,6.9,-,N/A,,Overcast,140,2012-10-05 02:55:00
10:15 PM,77.0,63.1,62,30.07,10.0,SSE,6.9,-,N/A,,Overcast,150,2012-10-05 03:15:00
10:35 PM,76.8,63.0,62,30.07,10.0,SE,8.1,-,N/A,,Overcast,140,2012-10-05 03:35:00
10:55 PM,76.5,62.8,62,30.07,10.0,SSE,8.1,-,N/A,,Overcast,150,2012-10-05 03:55:00
11:15 PM,76.3,62.8,63,30.07,10.0,SSE,6.9,-,N/A,,Mostly Cloudy,150,2012-10-05 04:15:00
11:35 PM,76.1,62.6,63,30.07,10.0,SSE,9.2,-,N/A,,Scattered Clouds,160,2012-10-05 04:35:00
11:55 PM,76.3,62.8,63,30.07,10.0,South,8.1,-,N/A,,Mostly Cloudy,170,2012-10-05 04:55:00